| time (UTC) | temp F | wind direction | speed MPH | gust MPH | rain 1hr in | rain 24hr in | rain mn in | humidity % | barometer mb |
| 20260509021515 | 72 | 167 | 1.0 | 0.0 | 0.00 | 0.00 | 0.02 | 86 | 1005.0 |
| 20260509020014 | 72 | 168 | 1.0 | 0.0 | 0.00 | 0.00 | 0.02 | 86 | 1004.9 |
| 20260509014515 | 72 | 168 | 1.0 | 0.0 | 0.00 | 0.00 | 0.02 | 86 | 1004.9 |
| 20260509013014 | 72 | 168 | 1.0 | 0.0 | 0.00 | 0.00 | 0.02 | 86 | 1004.8 |
| 20260509011514 | 72 | 169 | 2.0 | 0.0 | 0.00 | 0.00 | 0.02 | 86 | 1004.8 |
| 20260509010013 | 72 | 169 | 1.0 | 0.0 | 0.00 | 0.00 | 0.02 | 85 | 1004.5 |
| 20260509004517 | 72 | 171 | 3.0 | 0.0 | 0.00 | 0.00 | 0.02 | 85 | 1004.3 |
| 20260509003013 | 73 | 105 | 2.0 | 0.0 | 0.00 | 0.00 | 0.02 | 84 | 1004.3 |
| 20260509001513 | 73 | 110 | 3.0 | 0.0 | 0.00 | 0.00 | 0.02 | 84 | 1004.3 |
| 20260509000010 | 73 | 121 | 2.0 | 0.0 | 0.00 | 0.00 | 0.02 | 83 | 1004.3 |
| 20260508234513 | 73 | 112 | 2.0 | 0.0 | 0.00 | 0.00 | 0.02 | 83 | 1004.4 |
| 20260508233009 | 73 | 115 | 2.0 | 0.0 | 0.00 | 0.00 | 0.02 | 83 | 1004.4 |
| 20260508231508 | 73 | 115 | 4.0 | 0.0 | 0.00 | 0.00 | 0.02 | 82 | 1004.4 |
| 20260508230007 | 73 | 150 | 5.0 | 0.0 | 0.00 | 0.00 | 0.02 | 81 | 1004.4 |
| 20260508224506 | 73 | 130 | 5.0 | 0.0 | 0.00 | 0.00 | 0.02 | 81 | 1004.4 |
| 20260508223005 | 73 | 131 | 5.0 | 0.0 | 0.00 | 0.00 | 0.02 | 82 | 1004.5 |
| 20260508221503 | 73 | 178 | 4.0 | 0.0 | 0.00 | 0.00 | 0.02 | 81 | 1004.9 |
| 20260508220001 | 72 | 134 | 3.0 | 0.0 | 0.00 | 0.00 | 0.02 | 84 | 1005.0 |
| 20260508214601 | 72 | 98 | 1.0 | 0.0 | 0.00 | 0.00 | 0.02 | 84 | 1005.4 |
| 20260508213058 | 71 | 92 | 4.0 | 0.0 | 0.00 | 0.00 | 0.02 | 86 | 1005.2 |
| 20260508211557 | 69 | 123 | 7.0 | 0.0 | 0.00 | 0.00 | 0.02 | 86 | 1004.9 |
| 20260508210059 | 68 | 117 | 7.0 | 0.0 | 0.00 | 0.00 | 0.02 | 88 | 1005.0 |
| 20260508204556 | 68 | 110 | 4.0 | 0.0 | 0.00 | 0.00 | 0.02 | 85 | 1005.8 |
| 20260508203107 | 69 | 168 | 3.0 | 0.0 | 0.00 | 0.00 | 0.00 | 81 | 1006.7 |
| 20260508201600 | 70 | 168 | 3.0 | 0.0 | 0.00 | 0.00 | 0.00 | 79 | 1007.1 |
| 20260508200053 | 71 | 187 | 3.0 | 0.0 | 0.00 | 0.00 | 0.00 | 76 | 1007.3 |
| 20260508194551 | 71 | 159 | 4.0 | 0.0 | 0.00 | 0.00 | 0.00 | 77 | 1007.0 |
| 20260508193050 | 70 | 144 | 4.0 | 0.0 | 0.00 | 0.00 | 0.00 | 78 | 1007.1 |
| 20260508191551 | 69 | 160 | 4.0 | 0.0 | 0.00 | 0.00 | 0.00 | 77 | 1007.2 |
| 20260508190048 | 69 | 136 | 5.0 | 0.0 | 0.00 | 0.00 | 0.00 | 75 | 1007.6 |
| 20260508184549 | 69 | 153 | 5.0 | 0.0 | 0.00 | 0.00 | 0.00 | 76 | 1007.7 |
| 20260508183048 | 69 | 159 | 4.0 | 0.0 | 0.00 | 0.00 | 0.00 | 77 | 1008.1 |
| 20260508181546 | 70 | 144 | 5.0 | 0.0 | 0.00 | 0.00 | 0.00 | 74 | 1008.3 |
| 20260508180046 | 70 | 173 | 4.0 | 0.0 | 0.00 | 0.00 | 0.00 | 75 | 1008.2 |
| 20260508174554 | 70 | 105 | 5.0 | 0.0 | 0.00 | 0.00 | 0.00 | 76 | 1008.3 |
| 20260508173044 | 69 | 134 | 4.0 | 0.0 | 0.00 | 0.00 | 0.00 | 76 | 1008.8 |
| 20260508171543 | 69 | 132 | 5.0 | 0.0 | 0.00 | 0.00 | 0.00 | 74 | 1008.8 |
| 20260508170042 | 70 | 123 | 6.0 | 0.0 | 0.00 | 0.00 | 0.00 | 73 | 1009.1 |
| 20260508164540 | 69 | 70 | 7.0 | 0.0 | 0.00 | 0.00 | 0.00 | 75 | 1009.0 |
| 20260508163038 | 68 | 105 | 7.0 | 0.0 | 0.00 | 0.00 | 0.00 | 76 | 1009.3 |
| 20260508161533 | 67 | 117 | 4.0 | 0.0 | 0.00 | 0.00 | 0.00 | 77 | 1009.8 |
| 20260508160031 | 66 | 101 | 3.0 | 0.0 | 0.00 | 0.00 | 0.00 | 79 | 1010.0 |
| 20260508154529 | 65 | 78 | 4.0 | 0.0 | 0.00 | 0.00 | 0.00 | 80 | 1010.3 |
| 20260508153034 | 65 | 123 | 3.0 | 0.0 | 0.00 | 0.00 | 0.00 | 80 | 1010.4 |
| 20260508151524 | 65 | 95 | 4.0 | 0.0 | 0.00 | 0.00 | 0.00 | 80 | 1010.5 |
| 20260508150046 | 64 | 104 | 5.0 | 0.0 | 0.00 | 0.00 | 0.00 | 80 | 1010.4 |
| 20260508144523 | 64 | 117 | 4.0 | 0.0 | 0.00 | 0.00 | 0.00 | 81 | 1010.5 |
| 20260508143022 | 64 | 107 | 5.0 | 0.0 | 0.00 | 0.00 | 0.00 | 80 | 1010.5 |
| 20260508141525 | 64 | 105 | 4.0 | 0.0 | 0.00 | 0.00 | 0.00 | 81 | 1010.4 |
| 20260508140025 | 63 | 101 | 4.0 | 0.0 | 0.00 | 0.00 | 0.00 | 82 | 1010.5 |
| 20260508134517 | 63 | 109 | 5.0 | 0.0 | 0.00 | 0.00 | 0.00 | 84 | 1010.6 |
| 20260508133014 | 62 | 112 | 3.0 | 0.0 | 0.00 | 0.00 | 0.00 | 86 | 1010.8 |
| 20260508131510 | 61 | 124 | 2.0 | 0.0 | 0.00 | 0.00 | 0.00 | 89 | 1011.0 |
| 20260508130009 | 60 | 126 | 0.0 | 0.0 | 0.00 | 0.00 | 0.00 | 90 | 1010.9 |
| 20260508124511 | 60 | 126 | 0.0 | 0.0 | 0.00 | 0.00 | 0.00 | 91 | 1011.0 |
| 20260508123008 | 58 | 126 | 0.0 | 0.0 | 0.00 | 0.00 | 0.00 | 91 | 1010.7 |
| 20260508121507 | 58 | 126 | 0.0 | 0.0 | 0.00 | 0.00 | 0.00 | 91 | 1010.5 |
| 20260508120007 | 57 | 118 | 1.0 | 0.0 | 0.00 | 0.00 | 0.00 | 91 | 1010.4 |
| 20260508114506 | 57 | 118 | 0.0 | 0.0 | 0.00 | 0.00 | 0.00 | 91 | 1010.6 |
| 20260508113006 | 57 | 116 | 2.0 | 0.0 | 0.00 | 0.00 | 0.00 | 92 | 1010.5 |
| 20260508111505 | 57 | 117 | 1.0 | 0.0 | 0.00 | 0.00 | 0.00 | 92 | 1010.5 |
| 20260508110006 | 57 | 117 | 0.0 | 0.0 | 0.00 | 0.00 | 0.00 | 92 | 1010.7 |
| 20260508104504 | 57 | 117 | 1.0 | 0.0 | 0.00 | 0.00 | 0.00 | 92 | 1010.5 |
| 20260508103002 | 57 | 117 | 1.0 | 0.0 | 0.00 | 0.00 | 0.00 | 91 | 1010.4 |
| 20260508101600 | 57 | 116 | 2.0 | 0.0 | 0.00 | 0.00 | 0.00 | 90 | 1010.5 |
| 20260508100059 | 58 | 111 | 2.0 | 0.0 | 0.00 | 0.00 | 0.00 | 90 | 1010.2 |
| 20260508094558 | 58 | 92 | 2.0 | 0.0 | 0.00 | 0.00 | 0.00 | 89 | 1010.4 |
| 20260508093057 | 58 | 91 | 1.0 | 0.0 | 0.00 | 0.00 | 0.00 | 89 | 1010.5 |
| 20260508091608 | 59 | 91 | 0.0 | 0.0 | 0.00 | 0.00 | 0.00 | 90 | 1010.5 |
| 20260508090056 | 59 | 91 | 1.0 | 0.0 | 0.00 | 0.00 | 0.00 | 90 | 1010.4 |
| 20260508084608 | 58 | 92 | 1.0 | 0.0 | 0.00 | 0.00 | 0.00 | 90 | 1010.5 |
| 20260508083104 | 59 | 91 | 1.0 | 0.0 | 0.00 | 0.00 | 0.00 | 90 | 1010.6 |
| 20260508081554 | 59 | 92 | 0.0 | 0.0 | 0.00 | 0.00 | 0.00 | 89 | 1011.1 |
| 20260508080106 | 59 | 92 | 0.0 | 0.0 | 0.00 | 0.00 | 0.00 | 89 | 1011.6 |
| 20260508074554 | 59 | 92 | 0.0 | 0.0 | 0.00 | 0.00 | 0.00 | 89 | 1011.7 |
| 20260508073056 | 59 | 92 | 0.0 | 0.0 | 0.00 | 0.00 | 0.00 | 88 | 1011.5 |
| 20260508071549 | 59 | 91 | 0.0 | 0.0 | 0.00 | 0.00 | 0.00 | 88 | 1011.0 |
| 20260508070051 | 59 | 92 | 1.0 | 0.0 | 0.00 | 0.00 | 0.00 | 88 | 1011.0 |
| 20260508064555 | 59 | 91 | 0.0 | 0.0 | 0.00 | 0.00 | 0.00 | 87 | 1011.5 |
| 20260508063045 | 59 | 92 | 0.0 | 0.0 | 0.00 | 0.00 | 0.00 | 86 | 1011.6 |
| 20260508061545 | 60 | 92 | 0.0 | 0.0 | 0.00 | 0.00 | 0.00 | 86 | 1012.0 |
| 20260508060043 | 60 | 92 | 0.0 | 0.0 | 0.00 | 0.00 | 0.00 | 87 | 1012.1 |
| 20260508054547 | 60 | 92 | 0.0 | 0.0 | 0.00 | 0.00 | 0.00 | 87 | 1012.1 |
| 20260508053051 | 60 | 91 | 0.0 | 0.0 | 0.00 | 0.00 | 0.00 | 87 | 1012.1 |
| 20260508051543 | 60 | 91 | 0.0 | 0.0 | 0.00 | 0.00 | 0.00 | 86 | 1012.1 |
| 20260508050050 | 60 | 92 | 0.0 | 0.0 | 0.00 | 0.00 | 0.00 | 86 | 1012.1 |
| 20260508044542 | 60 | 91 | 0.0 | 0.0 | 0.00 | 0.00 | 0.00 | 86 | 1012.1 |
| 20260508043039 | 60 | 91 | 0.0 | 0.0 | 0.00 | 0.00 | 0.00 | 85 | 1012.1 |
| 20260508041538 | 61 | 92 | 0.0 | 0.0 | 0.00 | 0.00 | 0.00 | 85 | 1012.1 |
| 20260508040049 | 61 | 92 | 0.0 | 0.0 | 0.00 | 0.00 | 0.00 | 83 | 1012.1 |
| 20260508034542 | 61 | 92 | 0.0 | 0.0 | 0.00 | 0.00 | 0.00 | 82 | 1012.0 |
| 20260508033037 | 62 | 92 | 0.0 | 0.0 | 0.00 | 0.00 | 0.00 | 82 | 1011.6 |
| 20260508031535 | 62 | 92 | 2.0 | 0.0 | 0.00 | 0.00 | 0.00 | 81 | 1011.3 |
| 20260508030036 | 62 | 91 | 0.0 | 0.0 | 0.00 | 0.00 | 0.00 | 80 | 1011.2 |
| 20260508024538 | 62 | 91 | 1.0 | 0.0 | 0.00 | 0.00 | 0.00 | 81 | 1011.2 |
| 20260508023036 | 62 | 92 | 1.0 | 0.0 | 0.00 | 0.00 | 0.00 | 80 | 1011.3 |